QPF
0.00 0.00 0.00 0.00 0.00 0.00 0.00 0.00 0.00 0.00 0.00 0.00 0.00 0.00 0.00 0.00 0.00 0.00 0.00 0.00 0.00 0.00 0.00 0.00 0.00 0.00 0.01 0.01 0.01 0.01 0.01 0.01 0.01 0.01 0.01 0.01 0.01 0.01 0.01 0.01 0.00 0.00 0.00 0.00 0.00 0.00 0.00 0.00 0.00
0.00 0.00 0.00 0.00 0.00 0.00 0.00 0.00 0.00 0.00 0.00 0.00 0.00 0.00 0.00 0.00 0.00 0.00 0.00 0.00 0.00 0.00 0.00 0.00 0.00 0.00 0.01 0.01 0.01 0.01 0.01 0.01 0.01 0.00 0.00 0.01 0.01 0.00 0.01 0.00 0.00 0.00 0.00 0.00 0.00 0.00 0.00 0.00 0.00
0.00 0.00 0.00 0.00 0.00 0.00 0.00 0.00 0.00 0.00 0.00 0.00 0.00 0.00 0.00 0.00 0.00 0.00 0.00 0.00 0.00 0.00 0.00 0.00 0.00 0.00 0.00 0.01 0.01 0.01 0.01 0.01 0.00 0.00 0.00 0.00 0.00 0.00 0.00 0.00 0.00 0.00 0.00 0.00 0.00 0.00 0.00 0.00 0.00
0.00 0.00 0.00 0.00 0.00 0.00 0.00 0.00 0.00 0.00 0.00 0.00 0.00 0.00 0.00 0.00 0.00 0.00 0.00 0.00 0.00 0.00 0.00 0.00 0.00 0.00 0.01 0.01 0.01 0.01 0.02 0.01 0.00 0.00 0.00 0.00 0.00 0.00 0.00 0.00 0.00 0.00 0.00 0.00 0.00 0.00 0.00 0.00 0.00
0.00 0.00 0.00 0.00 0.00 0.00 0.00 0.00 0.00 0.00 0.00 0.00 0.00 0.00 0.00 0.00 0.00 0.00 0.00 0.00 0.00 0.00 0.00 0.00 0.00 0.00 0.01 0.01 0.02 0.01 0.02 0.02 0.01 0.01 0.00 0.01 0.01 0.01 0.00 0.00 0.00 0.00 0.00 0.00 0.00 0.00 0.00 0.00 0.00
0.00 0.00 0.00 0.00 0.00 0.00 0.00 0.00 0.00 0.00 0.00 0.00 0.00 0.00 0.00 0.00 0.00 0.00 0.00 0.00 0.00 0.00 0.00 0.00 0.00 0.00 0.01 0.01 0.02 0.02 0.02 0.02 0.02 0.02 0.01 0.01 0.02 0.02 0.01 0.01 0.00 0.00 0.00 0.00 0.00 0.00 0.00 0.00 0.00
0.00 0.00 0.00 0.00 0.00 0.00 0.00 0.00 0.00 0.00 0.00 0.00 0.00 0.00 0.00 0.00 0.00 0.00 0.00 0.00 0.00 0.00 0.00 0.00 0.00 0.01 0.01 0.02 0.02 0.02 0.02 0.02 0.02 0.02 0.02 0.01 0.02 0.02 0.02 0.01 0.01 0.00 0.00 0.00 0.00 0.00 0.00 0.00 0.00
0.00 0.00 0.00 0.00 0.00 0.00 0.00 0.00 0.00 0.00 0.00 0.00 0.00 0.00 0.00 0.00 0.00 0.00 0.00 0.00 0.00 0.00 0.00 0.00 0.00 0.01 0.01 0.02 0.02 0.02 0.02 0.02 0.02 0.02 0.02 0.02 0.02 0.03 0.02 0.02 0.01 0.01 0.00 0.00 0.00 0.00 0.00 0.00 0.00
0.00 0.00 0.00 0.00 0.00 0.00 0.00 0.00 0.00 0.00 0.00 0.00 0.00 0.00 0.00 0.00 0.00 0.00 0.00 0.00 0.00 0.00 0.00 0.00 0.00 0.00 0.01 0.02 0.02 0.03 0.03 0.03 0.03 0.03 0.03 0.03 0.03 0.04 0.03 0.02 0.01 0.01 0.00 0.00 0.00 0.00 0.00 0.00 0.00
0.00 0.00 0.00 0.00 0.00 0.00 0.00 0.00 0.00 0.00 0.00 0.00 0.00 0.00 0.00 0.00 0.00 0.00 0.00 0.00 0.00 0.00 0.00 0.00 0.00 0.00 0.00 0.01 0.02 0.03 0.03 0.03 0.04 0.04 0.04 0.03 0.03 0.03 0.03 0.02 0.02 0.01 0.00 0.00 0.00 0.00 0.00 0.00 0.00
0.00 0.00 0.00 0.00 0.00 0.00 0.00 0.00 0.00 0.00 0.00 0.00 0.00 0.00 0.00 0.00 0.00 0.00 0.00 0.00 0.00 0.00 0.00 0.00 0.00 0.00 0.00 0.01 0.01 0.02 0.03 0.03 0.04 0.04 0.04 0.04 0.04 0.03 0.03 0.02 0.02 0.01 0.00 0.00 0.00 0.00 0.00 0.00 0.00
0.00 0.00 0.00 0.00 0.00 0.00 0.00 0.00 0.00 0.00 0.00 0.00 0.00 0.00 0.00 0.00 0.00 0.00 0.00 0.00 0.00 0.00 0.00 0.00 0.00 0.00 0.00 0.00 0.01 0.02 0.03 0.03 0.04 0.04 0.04 0.05 0.05 0.04 0.03 0.02 0.02 0.01 0.01 0.00 0.00 0.00 0.00 0.00 0.00
0.00 0.00 0.00 0.00 0.00 0.00 0.00 0.00 0.00 0.00 0.00 0.00 0.00 0.00 0.00 0.00 0.00 0.00 0.00 0.00 0.00 0.00 0.00 0.00 0.00 0.00 0.00 0.00 0.01 0.02 0.02 0.03 0.03 0.03 0.04 0.05 0.05 0.05 0.04 0.03 0.02 0.01 0.01 0.01 0.00 0.00 0.00 0.00 0.00
0.00 0.00 0.00 0.00 0.00 0.00 0.00 0.00 0.00 0.00 0.00 0.00 0.00 0.00 0.00 0.00 0.00 0.00 0.00 0.00 0.00 0.00 0.00 0.00 0.00 0.00 0.00 0.00 0.01 0.01 0.02 0.02 0.03 0.03 0.03 0.04 0.04 0.04 0.03 0.02 0.02 0.02 0.01 0.01 0.01 0.00 0.00 0.00 0.00
0.00 0.00 0.00 0.00 0.00 0.00 0.00 0.00 0.00 0.00 0.00 0.00 0.00 0.00 0.00 0.00 0.00 0.00 0.00 0.00 0.00 0.00 0.00 0.00 0.00 0.00 0.00 0.00 0.01 0.01 0.01 0.02 0.02 0.02 0.02 0.02 0.03 0.03 0.02 0.02 0.02 0.02 0.02 0.02 0.01 0.01 0.01 0.00 0.00
0.00 0.00 0.00 0.00 0.00 0.00 0.00 0.00 0.00 0.00 0.00 0.00 0.00 0.00 0.00 0.00 0.00 0.00 0.00 0.00 0.00 0.00 0.00 0.00 0.00 0.00 0.00 0.00 0.00 0.01 0.01 0.01 0.01 0.01 0.01 0.01 0.02 0.02 0.02 0.02 0.02 0.02 0.02 0.02 0.02 0.02 0.01 0.01 0.01
0.00 0.00 0.00 0.00 0.00 0.00 0.00 0.00 0.00 0.00 0.00 0.00 0.00 0.00 0.00 0.00 0.00 0.00 0.00 0.00 0.00 0.00 0.00 0.00 0.00 0.00 0.00 0.00 0.00 0.00 0.00 0.00 0.00 0.00 0.00 0.01 0.01 0.02 0.02 0.02 0.02 0.02 0.02 0.02 0.02 0.02 0.01 0.01 0.01
0.00 0.00 0.00 0.00 0.00 0.00 0.00 0.00 0.00 0.00 0.00 0.00 0.00 0.00 0.00 0.00 0.00 0.00 0.00 0.00 0.00 0.00 0.00 0.00 0.00 0.00 0.00 0.00 0.00 0.00 0.00 0.00 0.00 0.00 0.00 0.00 0.00 0.01 0.01 0.01 0.01 0.01 0.01 0.02 0.02 0.01 0.01 0.01 0.01
0.00 0.00 0.00 0.00 0.00 0.00 0.00 0.00 0.00 0.00 0.00 0.00 0.00 0.00 0.00 0.00 0.00 0.00 0.00 0.00 0.00 0.00 0.00 0.00 0.00 0.00 0.00 0.00 0.00 0.00 0.00 0.00 0.00 0.00 0.00 0.00 0.00 0.00 0.00 0.01 0.01 0.01 0.01 0.01 0.01 0.00 0.00 0.01 0.00
0.00 0.00 0.00 0.00 0.00 0.00 0.00 0.00 0.00 0.00 0.00 0.00 0.00 0.00 0.00 0.00 0.00 0.00 0.00 0.00 0.00 0.00 0.00 0.00 0.00 0.00 0.00 0.00 0.00 0.00 0.00 0.00 0.00 0.00 0.00 0.00 0.00 0.00 0.00 0.00 0.00 0.00 0.00 0.00 0.00 0.00 0.00 0.00 0.00
0.00 0.00 0.00 0.00 0.00 0.00 0.00 0.00 0.00 0.00 0.00 0.00 0.00 0.00 0.00 0.00 0.00 0.00 0.00 0.00 0.00 0.00 0.00 0.00 0.00 0.00 0.00 0.00 0.00 0.00 0.00 0.00 0.00 0.00 0.00 0.00 0.00 0.00 0.00 0.00 0.00 0.00 0.00 0.00 0.00 0.00 0.00 0.00 0.00
0.00 0.00 0.00 0.00 0.00 0.00 0.00 0.00 0.00 0.00 0.00 0.00 0.00 0.00 0.00 0.00 0.00 0.00 0.00 0.00 0.00 0.00 0.00 0.00 0.00 0.00 0.00 0.00 0.00 0.00 0.00 0.00 0.00 0.00 0.00 0.00 0.00 0.00 0.00 0.00 0.00 0.00 0.00 0.00 0.00 0.00 0.00 0.00 0.00
0.00 0.00 0.00 0.00 0.00 0.00 0.00 0.00 0.00 0.00 0.00 0.00 0.00 0.00 0.00 0.00 0.00 0.00 0.00 0.00 0.00 0.00 0.00 0.00 0.00 0.00 0.00 0.00 0.00 0.00 0.00 0.00 0.00 0.00 0.00 0.00 0.00 0.00 0.00 0.00 0.00 0.00 0.00 0.00 0.00 0.00 0.00 0.00 0.00
0.00 0.00 0.00 0.00 0.00 0.00 0.00 0.00 0.00 0.00 0.00 0.00 0.00 0.00 0.00 0.00 0.00 0.00 0.00 0.00 0.00 0.00 0.00 0.00 0.00 0.00 0.00 0.00 0.00 0.00 0.00 0.00 0.00 0.00 0.00 0.00 0.00 0.00 0.00 0.00 0.00 0.00 0.00 0.00 0.00 0.00 0.00 0.00 0.00
0.00 0.00 0.00 0.00 0.00 0.00 0.00 0.00 0.00 0.00 0.00 0.00 0.00 0.00 0.00 0.00 0.00 0.00 0.00 0.00 0.00 0.00 0.00 0.00 0.00 0.00 0.00 0.00 0.00 0.00 0.00 0.00 0.00 0.00 0.00 0.00 0.00 0.00 0.00 0.00 0.00 0.00 0.00 0.00 0.00 0.00 0.00 0.00 0.00
0.00 0.00 0.00 0.00 0.00 0.00 0.00 0.00 0.00 0.00 0.00 0.00 0.00 0.00 0.00 0.00 0.00 0.00 0.00 0.00 0.00 0.00 0.00 0.00 0.00 0.00 0.00 0.00 0.00 0.00 0.00 0.00 0.00 0.00 0.00 0.00 0.00 0.00 0.00 0.00 0.00 0.00 0.00 0.00 0.00 0.00 0.00 0.00 0.00
0.00 0.00 0.00 0.00 0.00 0.00 0.00 0.00 0.00 0.00 0.00 0.00 0.00 0.00 0.00 0.00 0.00 0.00 0.00 0.00 0.00 0.00 0.00 0.00 0.00 0.00 0.00 0.00 0.00 0.00 0.00 0.00 0.00 0.00 0.00 0.00 0.00 0.00 0.00 0.00 0.00 0.00 0.00 0.00 0.00 0.00 0.00 0.00 0.00
0.00 0.00 0.00 0.00 0.00 0.00 0.00 0.00 0.00 0.00 0.00 0.00 0.00 0.00 0.00 0.00 0.00 0.00 0.00 0.00 0.00 0.00 0.00 0.00 0.00 0.00 0.00 0.00 0.00 0.00 0.00 0.00 0.00 0.00 0.00 0.00 0.00 0.00 0.00 0.00 0.00 0.00 0.00 0.00 0.00 0.00 0.00 0.00 0.00
0.00 0.00 0.00 0.00 0.00 0.00 0.00 0.00 0.00 0.00 0.00 0.00 0.00 0.00 0.00 0.00 0.00 0.00 0.00 0.00 0.00 0.00 0.00 0.00 0.00 0.00 0.00 0.00 0.00 0.00 0.00 0.00 0.00 0.00 0.00 0.00 0.00 0.00 0.00 0.00 0.00 0.00 0.00 0.00 0.00 0.00 0.00 0.00 0.00
0.00 0.00 0.00 0.00 0.00 0.00 0.00 0.00 0.00 0.00 0.00 0.00 0.00 0.00 0.00 0.00 0.00 0.00 0.00 0.00 0.00 0.00 0.00 0.00 0.00 0.00 0.00 0.00 0.00 0.00 0.00 0.00 0.00 0.00 0.00 0.00 0.00 0.00 0.00 0.00 0.00 0.00 0.00 0.00 0.00 0.00 0.00 0.00 0.00
MSLP
1015.90 1016.20 1016.71 1017.39 1018.16 1018.91 1019.58 1020.07 1020.37 1020.48 1020.42 1020.25 1020.03 1019.80 1019.60 1019.43 1019.28 1019.15 1019.02 1018.91 1018.82 1018.79 1018.83 1018.97 1019.20 1019.50 1019.83 1020.14 1020.40 1020.57 1020.66 1020.67 1020.66 1020.66 1020.70 1020.82 1020.99 1021.21 1021.44 1021.64 1021.78 1021.87 1021.89 1021.89 1021.86 1021.84 1021.83 1021.81 1021.78
1016.21 1016.63 1017.26 1018.01 1018.78 1019.49 1020.05 1020.40 1020.53 1020.47 1020.26 1019.99 1019.72 1019.49 1019.32 1019.21 1019.14 1019.08 1019.01 1018.94 1018.87 1018.83 1018.86 1018.98 1019.20 1019.50 1019.83 1020.17 1020.46 1020.68 1020.81 1020.87 1020.90 1020.94 1021.01 1021.13 1021.31 1021.51 1021.73 1021.91 1022.05 1022.14 1022.18 1022.19 1022.19 1022.19 1022.20 1022.20 1022.16
1016.63 1017.16 1017.85 1018.61 1019.34 1019.95 1020.37 1020.56 1020.53 1020.33 1020.02 1019.69 1019.40 1019.20 1019.09 1019.06 1019.08 1019.10 1019.09 1019.05 1019.00 1018.96 1018.98 1019.08 1019.27 1019.55 1019.89 1020.24 1020.55 1020.81 1020.98 1021.10 1021.17 1021.23 1021.32 1021.45 1021.61 1021.80 1021.99 1022.16 1022.29 1022.37 1022.42 1022.45 1022.48 1022.51 1022.53 1022.53 1022.49
1017.15 1017.75 1018.45 1019.17 1019.81 1020.29 1020.56 1020.59 1020.43 1020.11 1019.75 1019.40 1019.15 1019.01 1018.99 1019.05 1019.15 1019.24 1019.28 1019.27 1019.23 1019.19 1019.18 1019.25 1019.42 1019.68 1020.00 1020.35 1020.67 1020.95 1021.16 1021.30 1021.40 1021.49 1021.59 1021.71 1021.86 1022.03 1022.19 1022.34 1022.46 1022.55 1022.62 1022.67 1022.73 1022.77 1022.81 1022.82 1022.78
1017.72 1018.34 1019.01 1019.65 1020.17 1020.51 1020.62 1020.53 1020.26 1019.90 1019.53 1019.23 1019.04 1018.99 1019.05 1019.20 1019.37 1019.51 1019.59 1019.60 1019.55 1019.49 1019.46 1019.50 1019.64 1019.86 1020.15 1020.48 1020.79 1021.06 1021.28 1021.43 1021.55 1021.65 1021.75 1021.87 1022.01 1022.16 1022.31 1022.45 1022.57 1022.68 1022.77 1022.85 1022.93 1023.00 1023.06 1023.08 1023.04
1018.28 1018.89 1019.50 1020.03 1020.41 1020.61 1020.60 1020.41 1020.11 1019.76 1019.44 1019.21 1019.12 1019.17 1019.32 1019.54 1019.75 1019.91 1020.00 1020.00 1019.93 1019.85 1019.79 1019.79 1019.88 1020.06 1020.30 1020.58 1020.85 1021.10 1021.30 1021.45 1021.57 1021.67 1021.77 1021.89 1022.02 1022.17 1022.32 1022.47 1022.61 1022.73 1022.86 1022.97 1023.09 1023.19 1023.26 1023.29 1023.26
1018.78 1019.35 1019.87 1020.28 1020.53 1020.61 1020.52 1020.30 1020.01 1019.72 1019.50 1019.40 1019.42 1019.56 1019.79 1020.04 1020.27 1020.42 1020.48 1020.45 1020.35 1020.23 1020.13 1020.09 1020.12 1020.23 1020.41 1020.62 1020.84 1021.04 1021.20 1021.34 1021.45 1021.55 1021.66 1021.78 1021.92 1022.07 1022.24 1022.41 1022.58 1022.74 1022.91 1023.06 1023.21 1023.34 1023.43 1023.48 1023.46
1019.20 1019.70 1020.12 1020.41 1020.56 1020.55 1020.42 1020.22 1020.00 1019.82 1019.74 1019.76 1019.90 1020.13 1020.40 1020.66 1020.87 1020.98 1021.00 1020.92 1020.77 1020.61 1020.46 1020.36 1020.33 1020.37 1020.46 1020.59 1020.74 1020.88 1021.00 1021.11 1021.21 1021.32 1021.44 1021.58 1021.74 1021.92 1022.11 1022.31 1022.51 1022.72 1022.93 1023.13 1023.31 1023.47 1023.58 1023.64 1023.65
1019.52 1019.94 1020.25 1020.44 1020.50 1020.45 1020.33 1020.19 1020.08 1020.05 1020.11 1020.27 1020.52 1020.81 1021.11 1021.35 1021.51 1021.57 1021.52 1021.38 1021.18 1020.96 1020.76 1020.61 1020.51 1020.47 1020.48 1020.52 1020.59 1020.67 1020.75 1020.84 1020.94 1021.05 1021.19 1021.36 1021.54 1021.75 1021.97 1022.21 1022.45 1022.70 1022.95 1023.19 1023.41 1023.59 1023.72 1023.80 1023.81
1019.78 1020.10 1020.31 1020.41 1020.41 1020.35 1020.27 1020.22 1020.24 1020.36 1020.57 1020.86 1021.20 1021.53 1021.83 1022.04 1022.14 1022.13 1022.01 1021.82 1021.57 1021.31 1021.06 1020.85 1020.69 1020.57 1020.50 1020.46 1020.46 1020.48 1020.53 1020.60 1020.70 1020.84 1021.01 1021.19 1021.41 1021.64 1021.89 1022.15 1022.42 1022.70 1022.99 1023.25 1023.50 1023.70 1023.85 1023.93 1023.96
1019.99 1020.22 1020.33 1020.35 1020.32 1020.27 1020.25 1020.31 1020.46 1020.72 1021.06 1021.46 1021.86 1022.22 1022.50 1022.67 1022.72 1022.65 1022.48 1022.24 1021.96 1021.67 1021.38 1021.13 1020.91 1020.72 1020.58 1020.48 1020.41 1020.39 1020.42 1020.49 1020.61 1020.77 1020.96 1021.17 1021.40 1021.64 1021.90 1022.17 1022.46 1022.75 1023.05 1023.34 1023.60 1023.81 1023.97 1024.05 1024.08
1020.17 1020.31 1020.34 1020.31 1020.25 1020.22 1020.27 1020.43 1020.70 1021.08 1021.52 1021.99 1022.44 1022.81 1023.07 1023.21 1023.22 1023.11 1022.91 1022.65 1022.36 1022.05 1021.75 1021.46 1021.20 1020.97 1020.77 1020.62 1020.53 1020.49 1020.51 1020.60 1020.74 1020.92 1021.12 1021.34 1021.57 1021.80 1022.04 1022.30 1022.57 1022.86 1023.16 1023.45 1023.72 1023.93 1024.07 1024.15 1024.17
1020.34 1020.39 1020.36 1020.28 1020.22 1020.22 1020.33 1020.57 1020.93 1021.39 1021.90 1022.43 1022.89 1023.27 1023.52 1023.64 1023.64 1023.52 1023.32 1023.07 1022.78 1022.48 1022.18 1021.88 1021.59 1021.33 1021.11 1020.94 1020.83 1020.80 1020.84 1020.96 1021.12 1021.31 1021.52 1021.73 1021.93 1022.12 1022.32 1022.54 1022.78 1023.04 1023.32 1023.60 1023.85 1024.04 1024.17 1024.22 1024.21
1020.48 1020.47 1020.38 1020.29 1020.22 1020.25 1020.40 1020.69 1021.10 1021.61 1022.17 1022.71 1023.20 1023.58 1023.84 1023.97 1023.98 1023.89 1023.72 1023.50 1023.25 1022.97 1022.67 1022.37 1022.08 1021.81 1021.59 1021.42 1021.34 1021.34 1021.42 1021.57 1021.76 1021.97 1022.17 1022.34 1022.49 1022.62 1022.76 1022.90 1023.09 1023.30 1023.54 1023.79 1024.01 1024.17 1024.26 1024.27 1024.22
1020.57 1020.51 1020.41 1020.30 1020.25 1020.29 1020.46 1020.78 1021.21 1021.74 1022.30 1022.85 1023.35 1023.75 1024.04 1024.21 1024.27 1024.23 1024.12 1023.95 1023.74 1023.49 1023.21 1022.92 1022.63 1022.37 1022.17 1022.04 1022.00 1022.06 1022.20 1022.39 1022.62 1022.83 1023.01 1023.14 1023.23 1023.28 1023.33 1023.39 1023.50 1023.65 1023.84 1024.04 1024.22 1024.34 1024.38 1024.34 1024.22
1020.59 1020.53 1020.42 1020.32 1020.27 1020.32 1020.50 1020.81 1021.23 1021.74 1022.30 1022.85 1023.36 1023.80 1024.14 1024.38 1024.52 1024.56 1024.53 1024.42 1024.25 1024.03 1023.76 1023.48 1023.21 1022.97 1022.81 1022.73 1022.76 1022.89 1023.10 1023.36 1023.62 1023.84 1024.00 1024.08 1024.09 1024.06 1024.02 1024.00 1024.03 1024.11 1024.24 1024.39 1024.51 1024.58 1024.57 1024.46 1024.27
1020.56 1020.51 1020.42 1020.33 1020.29 1020.34 1020.49 1020.77 1021.15 1021.63 1022.16 1022.72 1023.25 1023.74 1024.16 1024.50 1024.74 1024.88 1024.93 1024.88 1024.75 1024.55 1024.30 1024.03 1023.77 1023.56 1023.45 1023.44 1023.55 1023.77 1024.06 1024.38 1024.69 1024.92 1025.06 1025.10 1025.05 1024.94 1024.82 1024.72 1024.68 1024.70 1024.77 1024.86 1024.94 1024.95 1024.87 1024.70 1024.43
1020.49 1020.47 1020.41 1020.35 1020.31 1020.34 1020.45 1020.66 1020.98 1021.41 1021.91 1022.46 1023.03 1023.59 1024.11 1024.56 1024.93 1025.18 1025.31 1025.33 1025.24 1025.05 1024.80 1024.53 1024.28 1024.11 1024.04 1024.11 1024.31 1024.62 1025.00 1025.39 1025.74 1026.00 1026.13 1026.15 1026.05 1025.89 1025.71 1025.56 1025.46 1025.43 1025.45 1025.50 1025.52 1025.48 1025.35 1025.11 1024.77
1020.41 1020.44 1020.42 1020.38 1020.33 1020.32 1020.36 1020.49 1020.73 1021.08 1021.54 1022.09 1022.71 1023.35 1023.99 1024.57 1025.07 1025.44 1025.67 1025.75 1025.69 1025.51 1025.26 1024.98 1024.75 1024.60 1024.59 1024.72 1025.00 1025.40 1025.86 1026.32 1026.72 1027.01 1027.15 1027.16 1027.06 1026.88 1026.67 1026.49 1026.36 1026.30 1026.29 1026.29 1026.27 1026.19 1026.01 1025.72 1025.33
1020.36 1020.45 1020.47 1020.44 1020.37 1020.29 1020.25 1020.27 1020.41 1020.67 1021.09 1021.63 1022.30 1023.03 1023.79 1024.51 1025.15 1025.65 1025.97 1026.12 1026.09 1025.93 1025.68 1025.41 1025.18 1025.06 1025.09 1025.28 1025.62 1026.09 1026.61 1027.13 1027.58 1027.90 1028.08 1028.11 1028.01 1027.85 1027.65 1027.47 1027.34 1027.27 1027.24 1027.23 1027.18 1027.07 1026.85 1026.53 1026.11
1020.36 1020.50 1020.56 1020.52 1020.41 1020.26 1020.11 1020.01 1020.02 1020.20 1020.55 1021.10 1021.80 1022.63 1023.51 1024.38 1025.16 1025.79 1026.22 1026.44 1026.47 1026.33 1026.09 1025.83 1025.61 1025.51 1025.57 1025.80 1026.18 1026.69 1027.25 1027.81 1028.29 1028.65 1028.86 1028.93 1028.88 1028.76 1028.60 1028.45 1028.35 1028.29 1028.26 1028.24 1028.18 1028.05 1027.82 1027.49 1027.07
1020.38 1020.58 1020.66 1020.61 1020.45 1020.21 1019.94 1019.71 1019.60 1019.68 1019.98 1020.51 1021.26 1022.17 1023.17 1024.17 1025.09 1025.85 1026.40 1026.71 1026.81 1026.72 1026.51 1026.27 1026.08 1026.00 1026.07 1026.31 1026.71 1027.23 1027.80 1028.37 1028.86 1029.25 1029.50 1029.62 1029.63 1029.57 1029.48 1029.38 1029.32 1029.29 1029.27 1029.25 1029.18 1029.05 1028.82 1028.50 1028.10
1020.39 1020.63 1020.73 1020.66 1020.44 1020.10 1019.72 1019.37 1019.15 1019.13 1019.38 1019.90 1020.68 1021.67 1022.77 1023.90 1024.95 1025.84 1026.51 1026.93 1027.11 1027.10 1026.95 1026.76 1026.60 1026.53 1026.61 1026.85 1027.24 1027.73 1028.28 1028.82 1029.31 1029.71 1029.99 1030.16 1030.24 1030.25 1030.23 1030.20 1030.18 1030.18 1030.17 1030.15 1030.09 1029.95 1029.74 1029.45 1029.09
1020.31 1020.58 1020.68 1020.59 1020.32 1019.90 1019.42 1018.98 1018.67 1018.59 1018.79 1019.31 1020.11 1021.16 1022.34 1023.57 1024.74 1025.75 1026.54 1027.08 1027.37 1027.45 1027.39 1027.27 1027.16 1027.13 1027.21 1027.43 1027.77 1028.22 1028.71 1029.21 1029.67 1030.05 1030.36 1030.57 1030.70 1030.78 1030.83 1030.86 1030.89 1030.91 1030.91 1030.89 1030.81 1030.69 1030.49 1030.24 1029.92
1020.08 1020.36 1020.46 1020.34 1020.02 1019.56 1019.02 1018.52 1018.16 1018.04 1018.23 1018.75 1019.57 1020.66 1021.90 1023.21 1024.47 1025.57 1026.47 1027.13 1027.54 1027.74 1027.79 1027.77 1027.73 1027.73 1027.83 1028.03 1028.33 1028.70 1029.12 1029.55 1029.96 1030.32 1030.62 1030.86 1031.04 1031.18 1031.28 1031.36 1031.42 1031.45 1031.44 1031.40 1031.32 1031.19 1031.01 1030.79 1030.53
1019.62 1019.90 1019.98 1019.85 1019.51 1019.02 1018.47 1017.96 1017.60 1017.49 1017.69 1018.22 1019.07 1020.18 1021.46 1022.80 1024.11 1025.29 1026.28 1027.04 1027.57 1027.91 1028.09 1028.18 1028.23 1028.30 1028.42 1028.60 1028.86 1029.16 1029.50 1029.86 1030.20 1030.52 1030.81 1031.06 1031.27 1031.45 1031.60 1031.70 1031.77 1031.79 1031.77 1031.70 1031.60 1031.45 1031.28 1031.09 1030.87
1018.92 1019.17 1019.23 1019.08 1018.73 1018.26 1017.75 1017.28 1016.97 1016.92 1017.16 1017.73 1018.60 1019.71 1020.99 1022.34 1023.67 1024.88 1025.93 1026.77 1027.42 1027.88 1028.20 1028.42 1028.59 1028.74 1028.90 1029.09 1029.32 1029.57 1029.85 1030.13 1030.41 1030.69 1030.96 1031.21 1031.44 1031.64 1031.80 1031.92 1031.98 1031.98 1031.93 1031.82 1031.68 1031.51 1031.34 1031.16 1030.99
1017.99 1018.18 1018.20 1018.03 1017.70 1017.28 1016.84 1016.47 1016.27 1016.31 1016.62 1017.24 1018.12 1019.23 1020.48 1021.80 1023.09 1024.30 1025.37 1026.29 1027.02 1027.61 1028.07 1028.43 1028.72 1028.97 1029.21 1029.43 1029.65 1029.88 1030.11 1030.34 1030.58 1030.82 1031.07 1031.32 1031.55 1031.76 1031.93 1032.05 1032.09 1032.07 1031.98 1031.83 1031.65 1031.45 1031.26 1031.09 1030.94
1016.87 1016.97 1016.92 1016.73 1016.44 1016.09 1015.76 1015.53 1015.46 1015.63 1016.05 1016.72 1017.61 1018.70 1019.89 1021.14 1022.38 1023.55 1024.61 1025.55 1026.36 1027.05 1027.64 1028.13 1028.56 1028.93 1029.25 1029.54 1029.80 1030.03 1030.24 1030.45 1030.67 1030.90 1031.14 1031.38 1031.62 1031.84 1032.02 1032.12 1032.15 1032.10 1031.98 1031.79 1031.57 1031.35 1031.14 1030.97 1030.82
1015.63 1015.62 1015.49 1015.28 1015.02 1014.76 1014.56 1014.48 1014.57 1014.88 1015.41 1016.14 1017.05 1018.09 1019.22 1020.39 1021.53 1022.63 1023.66 1024.60 1025.45 1026.22 1026.92 1027.55 1028.10 1028.60 1029.03 1029.40 1029.71 1029.98 1030.22 1030.44 1030.66 1030.90 1031.15 1031.41 1031.66 1031.89 1032.06 1032.17 1032.19 1032.12 1031.98 1031.77 1031.52 1031.27 1031.04 1030.85 1030.71
Thickness
5750 5752 5755 5753 5740 5726 5711 5712 5716 5715 5719 5722 5722 5721 5719 5716 5711 5703 5717 5720 5718 5717 5713 5709 5706 5704 5701 5699 5697 5696 5695 5694 5693 5693 5692 5692 5691 5691 5690 5690 5690 5690 5690 5690 5690 5690 5691 5691 5692
5750 5752 5752 5745 5731 5714 5708 5715 5715 5716 5720 5723 5723 5722 5722 5719 5720 5718 5719 5717 5717 5715 5713 5710 5706 5704 5701 5699 5697 5696 5695 5694 5692 5691 5691 5689 5689 5688 5687 5687 5687 5687 5687 5686 5686 5687 5687 5687 5688
5749 5751 5745 5736 5724 5716 5710 5716 5719 5721 5723 5723 5722 5723 5721 5716 5718 5718 5716 5717 5716 5714 5712 5709 5706 5703 5701 5699 5697 5695 5694 5693 5692 5691 5689 5688 5687 5686 5685 5684 5684 5683 5683 5683 5682 5682 5683 5684 5684
5749 5746 5740 5731 5715 5714 5717 5718 5719 5720 5722 5723 5723 5720 5719 5713 5713 5713 5714 5715 5715 5713 5710 5708 5705 5703 5701 5698 5696 5695 5693 5691 5690 5689 5688 5686 5685 5684 5683 5682 5681 5680 5680 5679 5678 5678 5679 5680 5680
5747 5741 5728 5717 5712 5714 5717 5718 5719 5718 5719 5721 5721 5717 5713 5710 5711 5712 5713 5713 5713 5711 5708 5706 5703 5701 5700 5698 5696 5694 5692 5690 5689 5687 5686 5685 5684 5682 5681 5680 5679 5678 5677 5676 5675 5675 5675 5676 5676
5739 5736 5721 5712 5710 5712 5717 5717 5719 5718 5718 5718 5718 5715 5709 5706 5706 5707 5709 5709 5708 5707 5704 5703 5701 5700 5698 5696 5695 5693 5691 5689 5687 5686 5684 5683 5682 5681 5679 5678 5677 5675 5674 5673 5672 5671 5671 5672 5672
5733 5727 5718 5714 5708 5709 5713 5716 5717 5717 5715 5715 5716 5712 5710 5706 5700 5702 5703 5703 5702 5701 5700 5700 5699 5698 5697 5695 5694 5692 5690 5688 5686 5684 5683 5681 5680 5679 5677 5676 5674 5673 5671 5670 5668 5667 5667 5667 5667
5731 5724 5710 5710 5708 5707 5713 5714 5714 5714 5713 5714 5714 5711 5706 5698 5695 5698 5699 5699 5698 5696 5695 5695 5696 5696 5696 5695 5693 5691 5689 5687 5685 5683 5681 5680 5678 5677 5675 5673 5672 5670 5668 5666 5664 5663 5662 5661 5661
5726 5718 5709 5708 5708 5708 5711 5710 5711 5711 5711 5709 5703 5697 5687 5687 5692 5695 5696 5696 5694 5692 5691 5691 5691 5693 5693 5693 5692 5690 5688 5686 5684 5682 5680 5678 5677 5676 5673 5671 5669 5667 5665 5663 5661 5659 5658 5657 5656
5719 5712 5710 5711 5712 5710 5707 5707 5707 5708 5706 5703 5697 5687 5682 5684 5687 5689 5689 5689 5688 5688 5687 5686 5687 5689 5690 5691 5690 5689 5687 5685 5683 5681 5679 5677 5675 5673 5670 5667 5665 5663 5661 5659 5657 5656 5654 5652 5652
5713 5709 5706 5705 5706 5706 5702 5701 5702 5702 5699 5697 5694 5685 5678 5678 5680 5681 5680 5679 5679 5680 5682 5682 5684 5685 5687 5688 5688 5686 5685 5682 5680 5679 5677 5675 5673 5670 5667 5664 5661 5659 5657 5655 5653 5651 5650 5648 5646
5706 5702 5702 5703 5698 5697 5697 5697 5696 5694 5690 5676 5674 5672 5672 5673 5672 5671 5671 5671 5671 5673 5675 5677 5679 5682 5683 5684 5684 5682 5680 5678 5676 5674 5672 5671 5669 5666 5664 5661 5657 5655 5652 5650 5648 5646 5644 5643 5640
5699 5696 5695 5695 5692 5692 5690 5692 5691 5682 5669 5665 5664 5663 5664 5664 5664 5662 5662 5663 5664 5666 5668 5670 5674 5678 5679 5679 5678 5676 5674 5671 5669 5667 5665 5664 5663 5661 5658 5655 5651 5649 5646 5643 5642 5640 5638 5636 5634
5692 5691 5691 5690 5688 5686 5684 5685 5682 5675 5663 5660 5659 5658 5656 5655 5653 5656 5656 5656 5656 5657 5659 5663 5668 5671 5673 5672 5670 5667 5665 5662 5659 5656 5655 5655 5654 5652 5650 5646 5642 5639 5637 5634 5632 5630 5629 5627 5625
5684 5683 5687 5686 5682 5682 5678 5675 5675 5668 5659 5657 5654 5651 5647 5646 5645 5646 5645 5646 5647 5648 5650 5654 5658 5662 5663 5661 5658 5655 5652 5650 5647 5644 5643 5643 5642 5641 5638 5635 5631 5629 5626 5624 5622 5620 5618 5617 5615
5676 5675 5677 5681 5677 5674 5673 5677 5667 5657 5657 5655 5649 5646 5642 5638 5638 5637 5637 5638 5639 5640 5642 5645 5648 5650 5650 5648 5645 5642 5639 5636 5633 5631 5630 5629 5629 5627 5625 5622 5619 5616 5614 5612 5610 5609 5607 5606 5605
5667 5669 5671 5674 5673 5670 5669 5673 5660 5651 5653 5651 5645 5640 5637 5635 5632 5629 5628 5629 5630 5631 5633 5635 5637 5638 5637 5635 5632 5629 5625 5622 5619 5617 5616 5614 5614 5613 5611 5608 5604 5603 5601 5599 5597 5595 5594 5594 5594
5664 5663 5663 5667 5667 5663 5664 5666 5653 5646 5647 5647 5640 5634 5630 5629 5623 5619 5619 5619 5621 5623 5625 5626 5626 5627 5626 5624 5621 5616 5612 5607 5604 5601 5599 5599 5598 5596 5595 5593 5589 5588 5586 5584 5582 5581 5579 5578 5579
5663 5659 5661 5662 5655 5654 5659 5662 5656 5643 5639 5638 5634 5630 5626 5620 5613 5611 5611 5610 5612 5613 5615 5616 5616 5616 5616 5614 5611 5606 5598 5592 5588 5584 5582 5581 5580 5579 5577 5575 5572 5570 5568 5566 5565 5565 5564 5563 5563
5648 5647 5652 5650 5642 5643 5648 5653 5656 5640 5636 5634 5630 5624 5620 5614 5608 5604 5603 5602 5602 5603 5603 5604 5604 5604 5603 5601 5597 5591 5584 5577 5572 5568 5565 5563 5562 5560 5558 5555 5552 5550 5548 5546 5545 5545 5545 5544 5543
5638 5642 5647 5641 5631 5629 5631 5645 5649 5634 5619 5614 5615 5613 5610 5609 5605 5599 5595 5594 5593 5591 5591 5591 5591 5591 5589 5587 5583 5577 5572 5565 5558 5553 5549 5545 5543 5541 5538 5536 5533 5529 5527 5524 5522 5522 5522 5522 5521
5635 5637 5634 5628 5623 5631 5623 5636 5653 5640 5622 5612 5608 5605 5604 5598 5594 5590 5587 5584 5581 5579 5578 5578 5577 5576 5574 5572 5570 5568 5562 5552 5542 5536 5531 5527 5524 5522 5519 5516 5513 5509 5505 5502 5500 5498 5497 5497 5496
5629 5620 5617 5616 5615 5615 5612 5617 5647 5628 5627 5621 5608 5602 5598 5591 5586 5580 5576 5571 5568 5566 5565 5565 5563 5561 5558 5556 5553 5549 5542 5533 5526 5519 5514 5510 5506 5502 5498 5495 5491 5487 5483 5480 5477 5475 5474 5473 5471
5607 5604 5598 5598 5601 5601 5619 5614 5638 5639 5642 5633 5612 5600 5592 5582 5575 5569 5563 5559 5557 5554 5552 5551 5549 5545 5542 5540 5536 5532 5526 5518 5511 5505 5499 5493 5487 5482 5478 5474 5470 5466 5462 5458 5455 5452 5450 5448 5446
5604 5603 5592 5586 5586 5603 5608 5608 5634 5642 5631 5625 5613 5600 5588 5576 5568 5561 5555 5550 5546 5542 5539 5536 5534 5530 5525 5522 5518 5513 5508 5502 5495 5488 5482 5475 5469 5463 5457 5453 5448 5444 5439 5435 5432 5429 5426 5424 5422
5601 5607 5597 5590 5591 5602 5580 5598 5625 5613 5604 5603 5603 5594 5580 5569 5561 5554 5548 5541 5535 5529 5525 5522 5519 5514 5509 5504 5499 5493 5487 5481 5475 5468 5462 5456 5449 5442 5436 5431 5426 5421 5417 5413 5409 5406 5403 5400 5398
5589 5594 5602 5588 5569 5577 5597 5604 5609 5591 5588 5585 5584 5580 5573 5565 5555 5546 5537 5530 5523 5517 5512 5509 5503 5498 5492 5486 5481 5474 5468 5462 5455 5448 5442 5435 5428 5421 5415 5410 5405 5400 5395 5391 5387 5384 5380 5377 5374
5588 5592 5574 5580 5574 5584 5597 5597 5618 5607 5598 5580 5573 5572 5568 5558 5546 5536 5527 5519 5512 5505 5499 5493 5488 5483 5476 5470 5464 5457 5450 5444 5437 5430 5423 5416 5408 5401 5395 5389 5383 5378 5373 5369 5365 5362 5358 5354 5351
5575 5574 5583 5589 5587 5585 5591 5609 5615 5616 5607 5590 5581 5573 5566 5553 5541 5530 5519 5510 5501 5493 5486 5479 5473 5467 5461 5455 5448 5440 5433 5426 5419 5412 5404 5397 5389 5382 5375 5368 5362 5357 5352 5347 5343 5339 5335 5331 5328
5580 5586 5584 5583 5575 5580 5592 5604 5592 5592 5592 5586 5578 5565 5557 5546 5535 5523 5512 5500 5491 5483 5475 5468 5461 5454 5447 5440 5432 5424 5416 5408 5401 5393 5385 5377 5370 5362 5354 5347 5341 5335 5330 5325 5320 5316 5312 5308 5304